<?xml version="1.0" encoding="UTF-8" standalone="no" ?>
<gpx xmlns="http://www.topografix.com/GPX/1/1" xmlns:xsi="http://www.w3.org/2001/XMLSchema-instance" xsi:schemaLocation="http://www.topografix.com/GPX/1/1 http://www.topografix.com/GPX/1/1/gpx.xsd" version="1.1" creator="VisuGPX - https://www.visugpx.com">
  <metadata>
    <name>De Thury à Clécy</name>
    <desc><![CDATA[voie verte suisse normande trace 1, 2,3, 4, 5]]></desc>
  </metadata>
  <trk>
    <name><![CDATA[Thury_conde/Thury_conde]]></name>
    <trkseg>
      <trkpt lat="48.90554" lon="-0.46779">
        <ele>65</ele>
        <time>2018-07-10T10:49:53Z</time>
      </trkpt>
      <trkpt lat="48.90548" lon="-0.46787">
        <ele>65</ele>
        <time>2018-07-10T10:49:53Z</time>
      </trkpt>
      <trkpt lat="48.90535" lon="-0.46791">
        <ele>65</ele>
        <time>2018-07-10T10:49:53Z</time>
      </trkpt>
      <trkpt lat="48.90518" lon="-0.46785">
        <ele>64.9</ele>
        <time>2018-07-10T10:49:53Z</time>
      </trkpt>
      <trkpt lat="48.9047" lon="-0.4674">
        <ele>64.9</ele>
        <time>2018-07-10T10:49:53Z</time>
      </trkpt>
      <trkpt lat="48.90341" lon="-0.46642">
        <ele>64</ele>
        <time>2018-07-10T10:49:53Z</time>
      </trkpt>
      <trkpt lat="48.90093" lon="-0.46505">
        <ele>68.8</ele>
        <time>2018-07-10T10:49:53Z</time>
      </trkpt>
      <trkpt lat="48.89857" lon="-0.46463">
        <ele>74.1</ele>
        <time>2018-07-10T10:49:53Z</time>
      </trkpt>
      <trkpt lat="48.89819" lon="-0.46429">
        <ele>75.5</ele>
        <time>2018-07-10T10:49:53Z</time>
      </trkpt>
      <trkpt lat="48.89798" lon="-0.46388">
        <ele>77</ele>
        <time>2018-07-10T10:49:53Z</time>
      </trkpt>
      <trkpt lat="48.89897" lon="-0.46308">
        <ele>77.9</ele>
        <time>2018-07-10T10:49:53Z</time>
      </trkpt>
      <trkpt lat="48.89987" lon="-0.46147">
        <ele>76.5</ele>
        <time>2018-07-10T10:49:53Z</time>
      </trkpt>
      <trkpt lat="48.90056" lon="-0.46057">
        <ele>73</ele>
        <time>2018-07-10T10:49:53Z</time>
      </trkpt>
      <trkpt lat="48.90112" lon="-0.45982">
        <ele>67.7</ele>
        <time>2018-07-10T10:49:53Z</time>
      </trkpt>
      <trkpt lat="48.90154" lon="-0.45924">
        <ele>63</ele>
        <time>2018-07-10T10:49:53Z</time>
      </trkpt>
      <trkpt lat="48.9023" lon="-0.45879">
        <ele>57.8</ele>
        <time>2018-07-10T10:49:53Z</time>
      </trkpt>
      <trkpt lat="48.90276" lon="-0.45793">
        <ele>44.5</ele>
        <time>2018-07-10T10:49:53Z</time>
      </trkpt>
      <trkpt lat="48.90267" lon="-0.45685">
        <ele>36</ele>
        <time>2018-07-10T10:49:53Z</time>
      </trkpt>
      <trkpt lat="48.90232" lon="-0.45578">
        <ele>45.6</ele>
        <time>2018-07-10T10:49:53Z</time>
      </trkpt>
      <trkpt lat="48.90054" lon="-0.45564">
        <ele>56.5</ele>
        <time>2018-07-10T10:49:53Z</time>
      </trkpt>
      <trkpt lat="48.89861" lon="-0.45592">
        <ele>57.4</ele>
        <time>2018-07-10T10:49:53Z</time>
      </trkpt>
      <trkpt lat="48.89762" lon="-0.45551">
        <ele>59.2</ele>
        <time>2018-07-10T10:49:53Z</time>
      </trkpt>
      <trkpt lat="48.89727" lon="-0.45469">
        <ele>61.1</ele>
        <time>2018-07-10T10:49:53Z</time>
      </trkpt>
      <trkpt lat="48.89748" lon="-0.45312">
        <ele>66.8</ele>
        <time>2018-07-10T10:49:53Z</time>
      </trkpt>
      <trkpt lat="48.89773" lon="-0.45118">
        <ele>71.6</ele>
        <time>2018-07-10T10:49:53Z</time>
      </trkpt>
      <trkpt lat="48.89833" lon="-0.4497">
        <ele>82.1</ele>
        <time>2018-07-10T10:49:53Z</time>
      </trkpt>
      <trkpt lat="48.89917" lon="-0.4473">
        <ele>87</ele>
        <time>2018-07-10T10:49:53Z</time>
      </trkpt>
      <trkpt lat="48.89975" lon="-0.4467">
        <ele>90.4</ele>
        <time>2018-07-10T10:49:53Z</time>
      </trkpt>
      <trkpt lat="48.90064" lon="-0.44565">
        <ele>98.2</ele>
        <time>2018-07-10T10:49:53Z</time>
      </trkpt>
      <trkpt lat="48.90114" lon="-0.44391">
        <ele>96.2</ele>
        <time>2018-07-10T10:49:53Z</time>
      </trkpt>
      <trkpt lat="48.9017" lon="-0.44257">
        <ele>92</ele>
        <time>2018-07-10T10:49:53Z</time>
      </trkpt>
      <trkpt lat="48.90137" lon="-0.44241">
        <ele>99.1</ele>
        <time>2018-07-10T10:49:53Z</time>
      </trkpt>
      <trkpt lat="48.90031" lon="-0.44277">
        <ele>102.7</ele>
        <time>2018-07-10T10:49:53Z</time>
      </trkpt>
      <trkpt lat="48.90027" lon="-0.44089">
        <ele>110.6</ele>
        <time>2018-07-10T10:49:53Z</time>
      </trkpt>
      <trkpt lat="48.90002" lon="-0.43971">
        <ele>115.2</ele>
        <time>2018-07-10T10:49:53Z</time>
      </trkpt>
      <trkpt lat="48.90048" lon="-0.43693">
        <ele>116.9</ele>
        <time>2018-07-10T10:49:53Z</time>
      </trkpt>
      <trkpt lat="48.90046" lon="-0.43592">
        <ele>116.9</ele>
        <time>2018-07-10T10:49:53Z</time>
      </trkpt>
      <trkpt lat="48.90087" lon="-0.43327">
        <ele>119.5</ele>
        <time>2018-07-10T10:49:53Z</time>
      </trkpt>
      <trkpt lat="48.90037" lon="-0.43244">
        <ele>121</ele>
        <time>2018-07-10T10:49:53Z</time>
      </trkpt>
      <trkpt lat="48.89996" lon="-0.43357">
        <ele>122.2</ele>
        <time>2018-07-10T10:49:53Z</time>
      </trkpt>
      <trkpt lat="48.8983" lon="-0.43151">
        <ele>99.2</ele>
        <time>2018-07-10T10:49:53Z</time>
      </trkpt>
      <trkpt lat="48.89731" lon="-0.43108">
        <ele>90</ele>
        <time>2018-07-10T10:49:53Z</time>
      </trkpt>
      <trkpt lat="48.89767" lon="-0.42685">
        <ele>95.1</ele>
        <time>2018-07-10T10:49:53Z</time>
      </trkpt>
      <trkpt lat="48.89569" lon="-0.42614">
        <ele>92.9</ele>
        <time>2018-07-10T10:49:53Z</time>
      </trkpt>
      <trkpt lat="48.89574" lon="-0.42462">
        <ele>98.8</ele>
        <time>2018-07-10T10:49:53Z</time>
      </trkpt>
      <trkpt lat="48.89505" lon="-0.42371">
        <ele>104.9</ele>
        <time>2018-07-10T10:49:53Z</time>
      </trkpt>
      <trkpt lat="48.89511" lon="-0.42162">
        <ele>113.5</ele>
        <time>2018-07-10T10:49:53Z</time>
      </trkpt>
      <trkpt lat="48.89379" lon="-0.42103">
        <ele>124.9</ele>
        <time>2018-07-10T10:49:53Z</time>
      </trkpt>
      <trkpt lat="48.89312" lon="-0.41622">
        <ele>116.8</ele>
        <time>2018-07-10T10:49:53Z</time>
      </trkpt>
      <trkpt lat="48.89269" lon="-0.41287">
        <ele>107.4</ele>
        <time>2018-07-10T10:49:53Z</time>
      </trkpt>
      <trkpt lat="48.89276" lon="-0.41034">
        <ele>105.4</ele>
        <time>2018-07-10T10:49:53Z</time>
      </trkpt>
      <trkpt lat="48.89222" lon="-0.40951">
        <ele>88.6</ele>
        <time>2018-07-10T10:49:53Z</time>
      </trkpt>
      <trkpt lat="48.89248" lon="-0.40534">
        <ele>93.8</ele>
        <time>2018-07-10T10:49:53Z</time>
      </trkpt>
      <trkpt lat="48.89197" lon="-0.40798">
        <ele>70.7</ele>
        <time>2018-07-10T10:49:53Z</time>
      </trkpt>
      <trkpt lat="48.89178" lon="-0.41136">
        <ele>70.5</ele>
        <time>2018-07-10T10:49:53Z</time>
      </trkpt>
      <trkpt lat="48.89048" lon="-0.41366">
        <ele>66</ele>
        <time>2018-07-10T10:49:53Z</time>
      </trkpt>
      <trkpt lat="48.88932" lon="-0.41409">
        <ele>50.9</ele>
        <time>2018-07-10T10:49:53Z</time>
      </trkpt>
      <trkpt lat="48.88795" lon="-0.41378">
        <ele>56.9</ele>
        <time>2018-07-10T10:49:53Z</time>
      </trkpt>
      <trkpt lat="48.88534" lon="-0.41499">
        <ele>51.7</ele>
        <time>2018-07-10T10:49:53Z</time>
      </trkpt>
      <trkpt lat="48.88438" lon="-0.41709">
        <ele>57.2</ele>
        <time>2018-07-10T10:49:53Z</time>
      </trkpt>
      <trkpt lat="48.88296" lon="-0.41858">
        <ele>65.8</ele>
        <time>2018-07-10T10:49:53Z</time>
      </trkpt>
      <trkpt lat="48.88205" lon="-0.41852">
        <ele>54.9</ele>
        <time>2018-07-10T10:49:53Z</time>
      </trkpt>
      <trkpt lat="48.88163" lon="-0.41669">
        <ele>67.3</ele>
        <time>2018-07-10T10:49:53Z</time>
      </trkpt>
      <trkpt lat="48.88057" lon="-0.41554">
        <ele>48.6</ele>
        <time>2018-07-10T10:49:53Z</time>
      </trkpt>
      <trkpt lat="48.87933" lon="-0.41365">
        <ele>50.5</ele>
        <time>2018-07-10T10:49:53Z</time>
      </trkpt>
      <trkpt lat="48.87743" lon="-0.41179">
        <ele>53.8</ele>
        <time>2018-07-10T10:49:53Z</time>
      </trkpt>
      <trkpt lat="48.87564" lon="-0.4111">
        <ele>49.4</ele>
        <time>2018-07-10T10:49:53Z</time>
      </trkpt>
      <trkpt lat="48.87385" lon="-0.40981">
        <ele>51.6</ele>
        <time>2018-07-10T10:49:53Z</time>
      </trkpt>
      <trkpt lat="48.87257" lon="-0.4125">
        <ele>52.7</ele>
        <time>2018-07-10T10:49:53Z</time>
      </trkpt>
      <trkpt lat="48.87197" lon="-0.41344">
        <ele>58.9</ele>
        <time>2018-07-10T10:49:53Z</time>
      </trkpt>
      <trkpt lat="48.8715" lon="-0.41406">
        <ele>61.8</ele>
        <time>2018-07-10T10:49:53Z</time>
      </trkpt>
      <trkpt lat="48.87101" lon="-0.4146">
        <ele>62</ele>
        <time>2018-07-10T10:49:53Z</time>
      </trkpt>
      <trkpt lat="48.8707" lon="-0.41516">
        <ele>62.7</ele>
        <time>2018-07-10T10:49:53Z</time>
      </trkpt>
      <trkpt lat="48.87003" lon="-0.41641">
        <ele>61</ele>
        <time>2018-07-10T10:49:53Z</time>
      </trkpt>
      <trkpt lat="48.86965" lon="-0.41707">
        <ele>57.2</ele>
        <time>2018-07-10T10:49:53Z</time>
      </trkpt>
      <trkpt lat="48.86898" lon="-0.41898">
        <ele>52.4</ele>
        <time>2018-07-10T10:49:53Z</time>
      </trkpt>
      <trkpt lat="48.86876" lon="-0.4199">
        <ele>51.4</ele>
        <time>2018-07-10T10:49:53Z</time>
      </trkpt>
      <trkpt lat="48.86842" lon="-0.42176">
        <ele>51.1</ele>
        <time>2018-07-10T10:49:53Z</time>
      </trkpt>
      <trkpt lat="48.86835" lon="-0.42266">
        <ele>51.5</ele>
        <time>2018-07-10T10:49:53Z</time>
      </trkpt>
      <trkpt lat="48.86829" lon="-0.42384">
        <ele>52.5</ele>
        <time>2018-07-10T10:49:53Z</time>
      </trkpt>
      <trkpt lat="48.86808" lon="-0.42452">
        <ele>53</ele>
        <time>2018-07-10T10:49:53Z</time>
      </trkpt>
      <trkpt lat="48.86754" lon="-0.426">
        <ele>55</ele>
        <time>2018-07-10T10:49:53Z</time>
      </trkpt>
      <trkpt lat="48.86698" lon="-0.4273">
        <ele>57.8</ele>
        <time>2018-07-10T10:49:53Z</time>
      </trkpt>
      <trkpt lat="48.86659" lon="-0.42789">
        <ele>56.3</ele>
        <time>2018-07-10T10:49:53Z</time>
      </trkpt>
      <trkpt lat="48.86588" lon="-0.42955">
        <ele>54.4</ele>
        <time>2018-07-10T10:49:53Z</time>
      </trkpt>
      <trkpt lat="48.86537" lon="-0.43116">
        <ele>54.4</ele>
        <time>2018-07-10T10:49:53Z</time>
      </trkpt>
      <trkpt lat="48.86559" lon="-0.43364">
        <ele>60</ele>
        <time>2018-07-10T10:49:53Z</time>
      </trkpt>
      <trkpt lat="48.86594" lon="-0.43593">
        <ele>59.5</ele>
        <time>2018-07-10T10:49:53Z</time>
      </trkpt>
      <trkpt lat="48.86624" lon="-0.43715">
        <ele>57.7</ele>
        <time>2018-07-10T10:49:53Z</time>
      </trkpt>
      <trkpt lat="48.86656" lon="-0.43781">
        <ele>56.7</ele>
        <time>2018-07-10T10:49:53Z</time>
      </trkpt>
      <trkpt lat="48.86655" lon="-0.43945">
        <ele>55.6</ele>
        <time>2018-07-10T10:49:53Z</time>
      </trkpt>
      <trkpt lat="48.86816" lon="-0.44158">
        <ele>58.7</ele>
        <time>2018-07-10T10:49:53Z</time>
      </trkpt>
      <trkpt lat="48.8689" lon="-0.44327">
        <ele>59.8</ele>
        <time>2018-07-10T10:49:53Z</time>
      </trkpt>
      <trkpt lat="48.86935" lon="-0.44639">
        <ele>59</ele>
        <time>2018-07-10T10:49:53Z</time>
      </trkpt>
      <trkpt lat="48.86914" lon="-0.44802">
        <ele>59.5</ele>
        <time>2018-07-10T10:49:53Z</time>
      </trkpt>
      <trkpt lat="48.86894" lon="-0.45041">
        <ele>69.1</ele>
        <time>2018-07-10T10:49:53Z</time>
      </trkpt>
      <trkpt lat="48.86884" lon="-0.454">
        <ele>63.7</ele>
        <time>2018-07-10T10:49:53Z</time>
      </trkpt>
      <trkpt lat="48.86905" lon="-0.45553">
        <ele>64.1</ele>
        <time>2018-07-10T10:49:53Z</time>
      </trkpt>
      <trkpt lat="48.86973" lon="-0.45798">
        <ele>63.7</ele>
        <time>2018-07-10T10:49:53Z</time>
      </trkpt>
      <trkpt lat="48.86984" lon="-0.46127">
        <ele>69.2</ele>
        <time>2018-07-10T10:49:53Z</time>
      </trkpt>
      <trkpt lat="48.86999" lon="-0.46312">
        <ele>67.4</ele>
        <time>2018-07-10T10:49:53Z</time>
      </trkpt>
      <trkpt lat="48.86996" lon="-0.46444">
        <ele>66.7</ele>
        <time>2018-07-10T10:49:53Z</time>
      </trkpt>
      <trkpt lat="48.86864" lon="-0.46682">
        <ele>67.3</ele>
        <time>2018-07-10T10:49:53Z</time>
      </trkpt>
      <trkpt lat="48.86779" lon="-0.4679">
        <ele>68.6</ele>
        <time>2018-07-10T10:49:53Z</time>
      </trkpt>
      <trkpt lat="48.86668" lon="-0.46884">
        <ele>66.8</ele>
        <time>2018-07-10T10:49:53Z</time>
      </trkpt>
      <trkpt lat="48.86601" lon="-0.46899">
        <ele>68</ele>
        <time>2018-07-10T10:49:53Z</time>
      </trkpt>
      <trkpt lat="48.86247" lon="-0.47008">
        <ele>78.9</ele>
        <time>2018-07-10T10:49:53Z</time>
      </trkpt>
      <trkpt lat="48.86112" lon="-0.47081">
        <ele>78.9</ele>
        <time>2018-07-10T10:49:53Z</time>
      </trkpt>
      <trkpt lat="48.85921" lon="-0.47352">
        <ele>77.7</ele>
        <time>2018-07-10T10:49:53Z</time>
      </trkpt>
      <trkpt lat="48.85867" lon="-0.47494">
        <ele>77.4</ele>
        <time>2018-07-10T10:49:53Z</time>
      </trkpt>
      <trkpt lat="48.85832" lon="-0.47688">
        <ele>83.2</ele>
        <time>2018-07-10T10:49:53Z</time>
      </trkpt>
      <trkpt lat="48.85857" lon="-0.47955">
        <ele>75.2</ele>
        <time>2018-07-10T10:49:53Z</time>
      </trkpt>
      <trkpt lat="48.85902" lon="-0.48153">
        <ele>68.8</ele>
        <time>2018-07-10T10:49:53Z</time>
      </trkpt>
      <trkpt lat="48.85893" lon="-0.48317">
        <ele>66.6</ele>
        <time>2018-07-10T10:49:53Z</time>
      </trkpt>
      <trkpt lat="48.85784" lon="-0.48607">
        <ele>68.9</ele>
        <time>2018-07-10T10:49:53Z</time>
      </trkpt>
      <trkpt lat="48.85724" lon="-0.48798">
        <ele>71.2</ele>
        <time>2018-07-10T10:49:53Z</time>
      </trkpt>
      <trkpt lat="48.8572" lon="-0.48962">
        <ele>76.5</ele>
        <time>2018-07-10T10:49:53Z</time>
      </trkpt>
      <trkpt lat="48.85752" lon="-0.49154">
        <ele>77.8</ele>
        <time>2018-07-10T10:49:53Z</time>
      </trkpt>
      <trkpt lat="48.85804" lon="-0.49347">
        <ele>78.4</ele>
        <time>2018-07-10T10:49:53Z</time>
      </trkpt>
      <trkpt lat="48.85796" lon="-0.49492">
        <ele>77.5</ele>
        <time>2018-07-10T10:49:53Z</time>
      </trkpt>
      <trkpt lat="48.85768" lon="-0.49597">
        <ele>73.7</ele>
        <time>2018-07-10T10:49:53Z</time>
      </trkpt>
      <trkpt lat="48.8568" lon="-0.49743">
        <ele>67.5</ele>
        <time>2018-07-10T10:49:53Z</time>
      </trkpt>
      <trkpt lat="48.85436" lon="-0.49979">
        <ele>70.2</ele>
        <time>2018-07-10T10:49:53Z</time>
      </trkpt>
      <trkpt lat="48.85242" lon="-0.5026">
        <ele>69.8</ele>
        <time>2018-07-10T10:49:53Z</time>
      </trkpt>
      <trkpt lat="48.85198" lon="-0.50348">
        <ele>70.3</ele>
        <time>2018-07-10T10:49:53Z</time>
      </trkpt>
      <trkpt lat="48.85107" lon="-0.50519">
        <ele>70.6</ele>
        <time>2018-07-10T10:49:53Z</time>
      </trkpt>
      <trkpt lat="48.8506" lon="-0.50633">
        <ele>76.2</ele>
        <time>2018-07-10T10:49:53Z</time>
      </trkpt>
      <trkpt lat="48.85049" lon="-0.50806">
        <ele>69.9</ele>
        <time>2018-07-10T10:49:53Z</time>
      </trkpt>
      <trkpt lat="48.85069" lon="-0.5106">
        <ele>85.5</ele>
        <time>2018-07-10T10:49:53Z</time>
      </trkpt>
      <trkpt lat="48.85124" lon="-0.51294">
        <ele>82.1</ele>
        <time>2018-07-10T10:49:53Z</time>
      </trkpt>
      <trkpt lat="48.85149" lon="-0.5145">
        <ele>84.3</ele>
        <time>2018-07-10T10:49:53Z</time>
      </trkpt>
      <trkpt lat="48.85144" lon="-0.51548">
        <ele>84.7</ele>
        <time>2018-07-10T10:49:53Z</time>
      </trkpt>
      <trkpt lat="48.85138" lon="-0.51604">
        <ele>83.4</ele>
        <time>2018-07-10T10:49:53Z</time>
      </trkpt>
      <trkpt lat="48.85025" lon="-0.51821">
        <ele>73.9</ele>
        <time>2018-07-10T10:49:53Z</time>
      </trkpt>
      <trkpt lat="48.84978" lon="-0.51826">
        <ele>73.4</ele>
        <time>2018-07-10T10:49:53Z</time>
      </trkpt>
      <trkpt lat="48.84934" lon="-0.51875">
        <ele>74.8</ele>
        <time>2018-07-10T10:49:53Z</time>
      </trkpt>
      <trkpt lat="48.84908" lon="-0.5192">
        <ele>76.7</ele>
        <time>2018-07-10T10:49:53Z</time>
      </trkpt>
      <trkpt lat="48.84883" lon="-0.52055">
        <ele>79.5</ele>
        <time>2018-07-10T10:49:53Z</time>
      </trkpt>
      <trkpt lat="48.84933" lon="-0.52329">
        <ele>79.7</ele>
        <time>2018-07-10T10:49:53Z</time>
      </trkpt>
      <trkpt lat="48.84953" lon="-0.52498">
        <ele>80.4</ele>
        <time>2018-07-10T10:49:53Z</time>
      </trkpt>
      <trkpt lat="48.84942" lon="-0.52586">
        <ele>91.5</ele>
        <time>2018-07-10T10:49:53Z</time>
      </trkpt>
      <trkpt lat="48.84806" lon="-0.52763">
        <ele>99.8</ele>
        <time>2018-07-10T10:49:53Z</time>
      </trkpt>
      <trkpt lat="48.84714" lon="-0.52855">
        <ele>111.5</ele>
        <time>2018-07-10T10:49:53Z</time>
      </trkpt>
      <trkpt lat="48.84631" lon="-0.529">
        <ele>114.2</ele>
        <time>2018-07-10T10:49:53Z</time>
      </trkpt>
      <trkpt lat="48.8459" lon="-0.5296">
        <ele>117.2</ele>
        <time>2018-07-10T10:49:53Z</time>
      </trkpt>
      <trkpt lat="48.84565" lon="-0.53012">
        <ele>120</ele>
        <time>2018-07-10T10:49:53Z</time>
      </trkpt>
      <trkpt lat="48.84521" lon="-0.53104">
        <ele>122.8</ele>
        <time>2018-07-10T10:49:53Z</time>
      </trkpt>
      <trkpt lat="48.8444" lon="-0.53146">
        <ele>126.4</ele>
        <time>2018-07-10T10:49:53Z</time>
      </trkpt>
      <trkpt lat="48.84395" lon="-0.53193">
        <ele>129.5</ele>
        <time>2018-07-10T10:49:53Z</time>
      </trkpt>
      <trkpt lat="48.84448" lon="-0.53294">
        <ele>128.7</ele>
        <time>2018-07-10T10:49:53Z</time>
      </trkpt>
      <trkpt lat="48.84541" lon="-0.53348">
        <ele>121.8</ele>
        <time>2018-07-10T10:49:53Z</time>
      </trkpt>
      <trkpt lat="48.84685" lon="-0.53396">
        <ele>110.9</ele>
        <time>2018-07-10T10:49:53Z</time>
      </trkpt>
      <trkpt lat="48.84761" lon="-0.53492">
        <ele>103.3</ele>
        <time>2018-07-10T10:49:53Z</time>
      </trkpt>
      <trkpt lat="48.8477" lon="-0.53623">
        <ele>103.3</ele>
        <time>2018-07-10T10:49:53Z</time>
      </trkpt>
      <trkpt lat="48.84732" lon="-0.54135">
        <ele>80.1</ele>
        <time>2018-07-10T10:49:53Z</time>
      </trkpt>
      <trkpt lat="48.84695" lon="-0.54265">
        <ele>84</ele>
        <time>2018-07-10T10:49:53Z</time>
      </trkpt>
      <trkpt lat="48.84689" lon="-0.54315">
        <ele>85.2</ele>
        <time>2018-07-10T10:49:53Z</time>
      </trkpt>
      <trkpt lat="48.84748" lon="-0.5465">
        <ele>82.2</ele>
        <time>2018-07-10T10:49:53Z</time>
      </trkpt>
      <trkpt lat="48.84763" lon="-0.54775">
        <ele>80.5</ele>
        <time>2018-07-10T10:49:53Z</time>
      </trkpt>
      <trkpt lat="48.84775" lon="-0.54864">
        <ele>81.2</ele>
        <time>2018-07-10T10:49:53Z</time>
      </trkpt>
      <trkpt lat="48.84791" lon="-0.54878">
        <ele>79.5</ele>
        <time>2018-07-10T10:49:53Z</time>
      </trkpt>
      <trkpt lat="48.84803" lon="-0.54891">
        <ele>77.5</ele>
        <time>2018-07-10T10:49:53Z</time>
      </trkpt>
      <trkpt lat="48.84843" lon="-0.54957">
        <ele>78.8</ele>
        <time>2018-07-10T10:49:53Z</time>
      </trkpt>
      <trkpt lat="48.84875" lon="-0.55016">
        <ele>79</ele>
        <time>2018-07-10T10:49:53Z</time>
      </trkpt>
      <trkpt lat="48.84875" lon="-0.5507">
        <ele>79.8</ele>
        <time>2018-07-10T10:49:53Z</time>
      </trkpt>
      <trkpt lat="48.84875" lon="-0.5507">
        <ele>79.8</ele>
        <time>2018-07-10T10:49:53Z</time>
      </trkpt>
      <trkpt lat="48.90554" lon="-0.46779">
        <ele>65</ele>
        <time>2018-07-10T07:03:51Z</time>
      </trkpt>
      <trkpt lat="48.90548" lon="-0.46787">
        <ele>65</ele>
        <time>2018-07-10T07:03:51Z</time>
      </trkpt>
      <trkpt lat="48.90535" lon="-0.46791">
        <ele>65</ele>
        <time>2018-07-10T07:03:51Z</time>
      </trkpt>
      <trkpt lat="48.90518" lon="-0.46785">
        <ele>64.9</ele>
        <time>2018-07-10T07:03:51Z</time>
      </trkpt>
      <trkpt lat="48.9047" lon="-0.4674">
        <ele>64.9</ele>
        <time>2018-07-10T07:03:51Z</time>
      </trkpt>
      <trkpt lat="48.90341" lon="-0.46642">
        <ele>64</ele>
        <time>2018-07-10T07:03:51Z</time>
      </trkpt>
      <trkpt lat="48.90093" lon="-0.46505">
        <ele>68.8</ele>
        <time>2018-07-10T07:03:51Z</time>
      </trkpt>
      <trkpt lat="48.89857" lon="-0.46463">
        <ele>74.1</ele>
        <time>2018-07-10T07:03:51Z</time>
      </trkpt>
      <trkpt lat="48.89819" lon="-0.46429">
        <ele>75.5</ele>
        <time>2018-07-10T07:03:51Z</time>
      </trkpt>
      <trkpt lat="48.89798" lon="-0.46388">
        <ele>77</ele>
        <time>2018-07-10T07:03:51Z</time>
      </trkpt>
      <trkpt lat="48.89897" lon="-0.46308">
        <ele>77.9</ele>
        <time>2018-07-10T07:03:51Z</time>
      </trkpt>
      <trkpt lat="48.89987" lon="-0.46147">
        <ele>76.5</ele>
        <time>2018-07-10T07:03:51Z</time>
      </trkpt>
      <trkpt lat="48.90056" lon="-0.46057">
        <ele>73</ele>
        <time>2018-07-10T07:03:51Z</time>
      </trkpt>
      <trkpt lat="48.90112" lon="-0.45982">
        <ele>67.7</ele>
        <time>2018-07-10T07:03:51Z</time>
      </trkpt>
      <trkpt lat="48.90154" lon="-0.45924">
        <ele>63</ele>
        <time>2018-07-10T07:03:51Z</time>
      </trkpt>
      <trkpt lat="48.9023" lon="-0.45879">
        <ele>57.8</ele>
        <time>2018-07-10T07:03:51Z</time>
      </trkpt>
      <trkpt lat="48.90276" lon="-0.45793">
        <ele>44.5</ele>
        <time>2018-07-10T07:03:51Z</time>
      </trkpt>
      <trkpt lat="48.90267" lon="-0.45685">
        <ele>36</ele>
        <time>2018-07-10T07:03:51Z</time>
      </trkpt>
      <trkpt lat="48.90232" lon="-0.45578">
        <ele>45.6</ele>
        <time>2018-07-10T07:03:51Z</time>
      </trkpt>
      <trkpt lat="48.90054" lon="-0.45564">
        <ele>56.5</ele>
        <time>2018-07-10T07:03:51Z</time>
      </trkpt>
      <trkpt lat="48.89861" lon="-0.45592">
        <ele>57.4</ele>
        <time>2018-07-10T07:03:51Z</time>
      </trkpt>
      <trkpt lat="48.89762" lon="-0.45551">
        <ele>59.2</ele>
        <time>2018-07-10T07:03:51Z</time>
      </trkpt>
      <trkpt lat="48.89727" lon="-0.45469">
        <ele>61.1</ele>
        <time>2018-07-10T07:03:51Z</time>
      </trkpt>
      <trkpt lat="48.89748" lon="-0.45312">
        <ele>66.8</ele>
        <time>2018-07-10T07:03:51Z</time>
      </trkpt>
      <trkpt lat="48.89773" lon="-0.45118">
        <ele>71.6</ele>
        <time>2018-07-10T07:03:51Z</time>
      </trkpt>
      <trkpt lat="48.89833" lon="-0.4497">
        <ele>82.1</ele>
        <time>2018-07-10T07:03:51Z</time>
      </trkpt>
      <trkpt lat="48.89917" lon="-0.4473">
        <ele>87</ele>
        <time>2018-07-10T07:03:51Z</time>
      </trkpt>
      <trkpt lat="48.89975" lon="-0.4467">
        <ele>90.4</ele>
        <time>2018-07-10T07:03:51Z</time>
      </trkpt>
      <trkpt lat="48.90064" lon="-0.44565">
        <ele>98.2</ele>
        <time>2018-07-10T07:03:51Z</time>
      </trkpt>
      <trkpt lat="48.90114" lon="-0.44391">
        <ele>96.2</ele>
        <time>2018-07-10T07:03:51Z</time>
      </trkpt>
      <trkpt lat="48.9017" lon="-0.44257">
        <ele>92</ele>
        <time>2018-07-10T07:03:51Z</time>
      </trkpt>
      <trkpt lat="48.90137" lon="-0.44241">
        <ele>99.1</ele>
        <time>2018-07-10T07:03:51Z</time>
      </trkpt>
      <trkpt lat="48.90031" lon="-0.44277">
        <ele>102.7</ele>
        <time>2018-07-10T07:03:51Z</time>
      </trkpt>
      <trkpt lat="48.90027" lon="-0.44089">
        <ele>110.6</ele>
        <time>2018-07-10T07:03:51Z</time>
      </trkpt>
      <trkpt lat="48.90002" lon="-0.43971">
        <ele>115.2</ele>
        <time>2018-07-10T07:03:51Z</time>
      </trkpt>
      <trkpt lat="48.90048" lon="-0.43693">
        <ele>116.9</ele>
        <time>2018-07-10T07:03:51Z</time>
      </trkpt>
      <trkpt lat="48.90046" lon="-0.43592">
        <ele>116.9</ele>
        <time>2018-07-10T07:03:51Z</time>
      </trkpt>
      <trkpt lat="48.90087" lon="-0.43327">
        <ele>119.5</ele>
        <time>2018-07-10T07:03:51Z</time>
      </trkpt>
      <trkpt lat="48.90037" lon="-0.43244">
        <ele>121</ele>
        <time>2018-07-10T07:03:51Z</time>
      </trkpt>
      <trkpt lat="48.89996" lon="-0.43357">
        <ele>122.2</ele>
        <time>2018-07-10T07:03:51Z</time>
      </trkpt>
      <trkpt lat="48.8983" lon="-0.43151">
        <ele>99.2</ele>
        <time>2018-07-10T07:03:51Z</time>
      </trkpt>
      <trkpt lat="48.89731" lon="-0.43108">
        <ele>90</ele>
        <time>2018-07-10T07:03:51Z</time>
      </trkpt>
      <trkpt lat="48.89767" lon="-0.42685">
        <ele>95.1</ele>
        <time>2018-07-10T07:03:51Z</time>
      </trkpt>
      <trkpt lat="48.89569" lon="-0.42614">
        <ele>92.9</ele>
        <time>2018-07-10T07:03:51Z</time>
      </trkpt>
      <trkpt lat="48.89574" lon="-0.42462">
        <ele>98.8</ele>
        <time>2018-07-10T07:03:51Z</time>
      </trkpt>
      <trkpt lat="48.89505" lon="-0.42371">
        <ele>104.9</ele>
        <time>2018-07-10T07:03:51Z</time>
      </trkpt>
      <trkpt lat="48.89511" lon="-0.42162">
        <ele>113.5</ele>
        <time>2018-07-10T07:03:51Z</time>
      </trkpt>
      <trkpt lat="48.89379" lon="-0.42103">
        <ele>124.9</ele>
        <time>2018-07-10T07:03:51Z</time>
      </trkpt>
      <trkpt lat="48.89312" lon="-0.41622">
        <ele>116.8</ele>
        <time>2018-07-10T07:03:51Z</time>
      </trkpt>
      <trkpt lat="48.89269" lon="-0.41287">
        <ele>107.4</ele>
        <time>2018-07-10T07:03:51Z</time>
      </trkpt>
      <trkpt lat="48.89276" lon="-0.41034">
        <ele>105.4</ele>
        <time>2018-07-10T07:03:51Z</time>
      </trkpt>
      <trkpt lat="48.89222" lon="-0.40951">
        <ele>88.6</ele>
        <time>2018-07-10T07:03:51Z</time>
      </trkpt>
      <trkpt lat="48.89248" lon="-0.40534">
        <ele>93.8</ele>
        <time>2018-07-10T07:03:51Z</time>
      </trkpt>
      <trkpt lat="48.89197" lon="-0.40798">
        <ele>70.7</ele>
        <time>2018-07-10T07:03:51Z</time>
      </trkpt>
      <trkpt lat="48.89178" lon="-0.41136">
        <ele>70.5</ele>
        <time>2018-07-10T07:03:51Z</time>
      </trkpt>
      <trkpt lat="48.89048" lon="-0.41366">
        <ele>66</ele>
        <time>2018-07-10T07:03:51Z</time>
      </trkpt>
      <trkpt lat="48.88932" lon="-0.41409">
        <ele>50.9</ele>
        <time>2018-07-10T07:03:51Z</time>
      </trkpt>
      <trkpt lat="48.88795" lon="-0.41378">
        <ele>56.9</ele>
        <time>2018-07-10T07:03:51Z</time>
      </trkpt>
      <trkpt lat="48.88534" lon="-0.41499">
        <ele>51.7</ele>
        <time>2018-07-10T07:03:51Z</time>
      </trkpt>
      <trkpt lat="48.88438" lon="-0.41709">
        <ele>57.2</ele>
        <time>2018-07-10T07:03:51Z</time>
      </trkpt>
      <trkpt lat="48.88296" lon="-0.41858">
        <ele>65.8</ele>
        <time>2018-07-10T07:03:51Z</time>
      </trkpt>
      <trkpt lat="48.88205" lon="-0.41852">
        <ele>54.9</ele>
        <time>2018-07-10T07:03:51Z</time>
      </trkpt>
      <trkpt lat="48.88163" lon="-0.41669">
        <ele>67.3</ele>
        <time>2018-07-10T07:03:51Z</time>
      </trkpt>
      <trkpt lat="48.88057" lon="-0.41554">
        <ele>48.6</ele>
        <time>2018-07-10T07:03:51Z</time>
      </trkpt>
      <trkpt lat="48.87933" lon="-0.41365">
        <ele>50.5</ele>
        <time>2018-07-10T07:03:51Z</time>
      </trkpt>
      <trkpt lat="48.87743" lon="-0.41179">
        <ele>53.8</ele>
        <time>2018-07-10T07:03:51Z</time>
      </trkpt>
      <trkpt lat="48.87564" lon="-0.4111">
        <ele>49.4</ele>
        <time>2018-07-10T07:03:51Z</time>
      </trkpt>
      <trkpt lat="48.87385" lon="-0.40981">
        <ele>51.6</ele>
        <time>2018-07-10T07:03:51Z</time>
      </trkpt>
      <trkpt lat="48.87257" lon="-0.4125">
        <ele>52.7</ele>
        <time>2018-07-10T07:03:51Z</time>
      </trkpt>
      <trkpt lat="48.87197" lon="-0.41344">
        <ele>58.9</ele>
        <time>2018-07-10T07:03:51Z</time>
      </trkpt>
      <trkpt lat="48.8715" lon="-0.41406">
        <ele>61.8</ele>
        <time>2018-07-10T07:03:51Z</time>
      </trkpt>
      <trkpt lat="48.87101" lon="-0.4146">
        <ele>62</ele>
        <time>2018-07-10T07:03:51Z</time>
      </trkpt>
      <trkpt lat="48.8707" lon="-0.41516">
        <ele>62.7</ele>
        <time>2018-07-10T07:03:51Z</time>
      </trkpt>
      <trkpt lat="48.87003" lon="-0.41641">
        <ele>61</ele>
        <time>2018-07-10T07:03:51Z</time>
      </trkpt>
      <trkpt lat="48.86965" lon="-0.41707">
        <ele>57.2</ele>
        <time>2018-07-10T07:03:51Z</time>
      </trkpt>
      <trkpt lat="48.86898" lon="-0.41898">
        <ele>52.4</ele>
        <time>2018-07-10T07:03:51Z</time>
      </trkpt>
      <trkpt lat="48.86876" lon="-0.4199">
        <ele>51.4</ele>
        <time>2018-07-10T07:03:51Z</time>
      </trkpt>
      <trkpt lat="48.86842" lon="-0.42176">
        <ele>51.1</ele>
        <time>2018-07-10T07:03:51Z</time>
      </trkpt>
      <trkpt lat="48.86835" lon="-0.42266">
        <ele>51.5</ele>
        <time>2018-07-10T07:03:51Z</time>
      </trkpt>
      <trkpt lat="48.86829" lon="-0.42384">
        <ele>52.5</ele>
        <time>2018-07-10T07:03:51Z</time>
      </trkpt>
      <trkpt lat="48.86808" lon="-0.42452">
        <ele>53</ele>
        <time>2018-07-10T07:03:51Z</time>
      </trkpt>
      <trkpt lat="48.86754" lon="-0.426">
        <ele>55</ele>
        <time>2018-07-10T07:03:51Z</time>
      </trkpt>
      <trkpt lat="48.86698" lon="-0.4273">
        <ele>57.8</ele>
        <time>2018-07-10T07:03:51Z</time>
      </trkpt>
      <trkpt lat="48.86659" lon="-0.42789">
        <ele>56.3</ele>
        <time>2018-07-10T07:03:51Z</time>
      </trkpt>
      <trkpt lat="48.86588" lon="-0.42955">
        <ele>54.4</ele>
        <time>2018-07-10T07:03:51Z</time>
      </trkpt>
      <trkpt lat="48.86537" lon="-0.43116">
        <ele>54.4</ele>
        <time>2018-07-10T07:03:51Z</time>
      </trkpt>
      <trkpt lat="48.86559" lon="-0.43364">
        <ele>60</ele>
        <time>2018-07-10T07:03:51Z</time>
      </trkpt>
      <trkpt lat="48.86594" lon="-0.43593">
        <ele>59.5</ele>
        <time>2018-07-10T07:03:51Z</time>
      </trkpt>
      <trkpt lat="48.86624" lon="-0.43715">
        <ele>57.7</ele>
        <time>2018-07-10T07:03:51Z</time>
      </trkpt>
      <trkpt lat="48.86656" lon="-0.43781">
        <ele>56.7</ele>
        <time>2018-07-10T07:03:51Z</time>
      </trkpt>
      <trkpt lat="48.86655" lon="-0.43945">
        <ele>55.6</ele>
        <time>2018-07-10T07:03:51Z</time>
      </trkpt>
      <trkpt lat="48.86816" lon="-0.44158">
        <ele>58.7</ele>
        <time>2018-07-10T07:03:51Z</time>
      </trkpt>
      <trkpt lat="48.8689" lon="-0.44327">
        <ele>59.8</ele>
        <time>2018-07-10T07:03:51Z</time>
      </trkpt>
      <trkpt lat="48.86935" lon="-0.44639">
        <ele>59</ele>
        <time>2018-07-10T07:03:51Z</time>
      </trkpt>
      <trkpt lat="48.86914" lon="-0.44802">
        <ele>59.5</ele>
        <time>2018-07-10T07:03:51Z</time>
      </trkpt>
      <trkpt lat="48.86894" lon="-0.45041">
        <ele>69.1</ele>
        <time>2018-07-10T07:03:51Z</time>
      </trkpt>
      <trkpt lat="48.86884" lon="-0.454">
        <ele>63.7</ele>
        <time>2018-07-10T07:03:51Z</time>
      </trkpt>
      <trkpt lat="48.86905" lon="-0.45553">
        <ele>64.1</ele>
        <time>2018-07-10T07:03:51Z</time>
      </trkpt>
      <trkpt lat="48.86973" lon="-0.45798">
        <ele>63.7</ele>
        <time>2018-07-10T07:03:51Z</time>
      </trkpt>
      <trkpt lat="48.86984" lon="-0.46127">
        <ele>69.2</ele>
        <time>2018-07-10T07:03:51Z</time>
      </trkpt>
      <trkpt lat="48.86999" lon="-0.46312">
        <ele>67.4</ele>
        <time>2018-07-10T07:03:51Z</time>
      </trkpt>
      <trkpt lat="48.86996" lon="-0.46444">
        <ele>66.7</ele>
        <time>2018-07-10T07:03:51Z</time>
      </trkpt>
      <trkpt lat="48.86864" lon="-0.46682">
        <ele>67.3</ele>
        <time>2018-07-10T07:03:51Z</time>
      </trkpt>
      <trkpt lat="48.86779" lon="-0.4679">
        <ele>68.6</ele>
        <time>2018-07-10T07:03:51Z</time>
      </trkpt>
      <trkpt lat="48.86668" lon="-0.46884">
        <ele>66.8</ele>
        <time>2018-07-10T07:03:51Z</time>
      </trkpt>
      <trkpt lat="48.86601" lon="-0.46899">
        <ele>68</ele>
        <time>2018-07-10T07:03:51Z</time>
      </trkpt>
      <trkpt lat="48.86247" lon="-0.47008">
        <ele>78.9</ele>
        <time>2018-07-10T07:03:51Z</time>
      </trkpt>
      <trkpt lat="48.86112" lon="-0.47081">
        <ele>78.9</ele>
        <time>2018-07-10T07:03:51Z</time>
      </trkpt>
      <trkpt lat="48.85921" lon="-0.47352">
        <ele>77.7</ele>
        <time>2018-07-10T07:03:51Z</time>
      </trkpt>
      <trkpt lat="48.85867" lon="-0.47494">
        <ele>77.4</ele>
        <time>2018-07-10T07:03:51Z</time>
      </trkpt>
      <trkpt lat="48.85832" lon="-0.47688">
        <ele>83.2</ele>
        <time>2018-07-10T07:03:51Z</time>
      </trkpt>
      <trkpt lat="48.85857" lon="-0.47955">
        <ele>75.2</ele>
        <time>2018-07-10T07:03:51Z</time>
      </trkpt>
      <trkpt lat="48.85902" lon="-0.48153">
        <ele>68.8</ele>
        <time>2018-07-10T07:03:51Z</time>
      </trkpt>
      <trkpt lat="48.85893" lon="-0.48317">
        <ele>66.6</ele>
        <time>2018-07-10T07:03:51Z</time>
      </trkpt>
      <trkpt lat="48.85784" lon="-0.48607">
        <ele>68.9</ele>
        <time>2018-07-10T07:03:51Z</time>
      </trkpt>
      <trkpt lat="48.85724" lon="-0.48798">
        <ele>71.2</ele>
        <time>2018-07-10T07:03:51Z</time>
      </trkpt>
      <trkpt lat="48.8572" lon="-0.48962">
        <ele>76.5</ele>
        <time>2018-07-10T07:03:51Z</time>
      </trkpt>
      <trkpt lat="48.85752" lon="-0.49154">
        <ele>77.8</ele>
        <time>2018-07-10T07:03:51Z</time>
      </trkpt>
      <trkpt lat="48.85804" lon="-0.49347">
        <ele>78.4</ele>
        <time>2018-07-10T07:03:51Z</time>
      </trkpt>
      <trkpt lat="48.85796" lon="-0.49492">
        <ele>77.5</ele>
        <time>2018-07-10T07:03:51Z</time>
      </trkpt>
      <trkpt lat="48.85768" lon="-0.49597">
        <ele>73.7</ele>
        <time>2018-07-10T07:03:51Z</time>
      </trkpt>
      <trkpt lat="48.8568" lon="-0.49743">
        <ele>67.5</ele>
        <time>2018-07-10T07:03:51Z</time>
      </trkpt>
      <trkpt lat="48.85436" lon="-0.49979">
        <ele>70.2</ele>
        <time>2018-07-10T07:03:51Z</time>
      </trkpt>
      <trkpt lat="48.85242" lon="-0.5026">
        <ele>69.8</ele>
        <time>2018-07-10T07:03:51Z</time>
      </trkpt>
      <trkpt lat="48.85198" lon="-0.50348">
        <ele>70.3</ele>
        <time>2018-07-10T07:03:51Z</time>
      </trkpt>
      <trkpt lat="48.85107" lon="-0.50519">
        <ele>70.6</ele>
        <time>2018-07-10T07:03:51Z</time>
      </trkpt>
      <trkpt lat="48.8506" lon="-0.50633">
        <ele>76.2</ele>
        <time>2018-07-10T07:03:51Z</time>
      </trkpt>
      <trkpt lat="48.85049" lon="-0.50806">
        <ele>69.9</ele>
        <time>2018-07-10T07:03:51Z</time>
      </trkpt>
      <trkpt lat="48.85069" lon="-0.5106">
        <ele>85.5</ele>
        <time>2018-07-10T07:03:51Z</time>
      </trkpt>
      <trkpt lat="48.85124" lon="-0.51294">
        <ele>82.1</ele>
        <time>2018-07-10T07:03:51Z</time>
      </trkpt>
      <trkpt lat="48.85149" lon="-0.5145">
        <ele>84.3</ele>
        <time>2018-07-10T07:03:51Z</time>
      </trkpt>
      <trkpt lat="48.85144" lon="-0.51548">
        <ele>84.7</ele>
        <time>2018-07-10T07:03:51Z</time>
      </trkpt>
      <trkpt lat="48.85138" lon="-0.51604">
        <ele>83.4</ele>
        <time>2018-07-10T07:03:51Z</time>
      </trkpt>
      <trkpt lat="48.85025" lon="-0.51821">
        <ele>73.9</ele>
        <time>2018-07-10T07:03:51Z</time>
      </trkpt>
      <trkpt lat="48.84978" lon="-0.51826">
        <ele>73.4</ele>
        <time>2018-07-10T07:03:51Z</time>
      </trkpt>
      <trkpt lat="48.84934" lon="-0.51875">
        <ele>74.8</ele>
        <time>2018-07-10T07:03:51Z</time>
      </trkpt>
      <trkpt lat="48.84908" lon="-0.5192">
        <ele>76.7</ele>
        <time>2018-07-10T07:03:51Z</time>
      </trkpt>
      <trkpt lat="48.84883" lon="-0.52055">
        <ele>79.5</ele>
        <time>2018-07-10T07:03:51Z</time>
      </trkpt>
      <trkpt lat="48.84933" lon="-0.52329">
        <ele>79.7</ele>
        <time>2018-07-10T07:03:51Z</time>
      </trkpt>
      <trkpt lat="48.84953" lon="-0.52498">
        <ele>80.4</ele>
        <time>2018-07-10T07:03:51Z</time>
      </trkpt>
      <trkpt lat="48.84942" lon="-0.52586">
        <ele>91.5</ele>
        <time>2018-07-10T07:03:51Z</time>
      </trkpt>
      <trkpt lat="48.84806" lon="-0.52763">
        <ele>99.8</ele>
        <time>2018-07-10T07:03:51Z</time>
      </trkpt>
      <trkpt lat="48.84714" lon="-0.52855">
        <ele>111.5</ele>
        <time>2018-07-10T07:03:51Z</time>
      </trkpt>
      <trkpt lat="48.84631" lon="-0.529">
        <ele>114.2</ele>
        <time>2018-07-10T07:03:51Z</time>
      </trkpt>
      <trkpt lat="48.8459" lon="-0.5296">
        <ele>117.2</ele>
        <time>2018-07-10T07:03:51Z</time>
      </trkpt>
      <trkpt lat="48.84565" lon="-0.53012">
        <ele>120</ele>
        <time>2018-07-10T07:03:51Z</time>
      </trkpt>
      <trkpt lat="48.84521" lon="-0.53104">
        <ele>122.8</ele>
        <time>2018-07-10T07:03:51Z</time>
      </trkpt>
      <trkpt lat="48.8444" lon="-0.53146">
        <ele>126.4</ele>
        <time>2018-07-10T07:03:51Z</time>
      </trkpt>
      <trkpt lat="48.84395" lon="-0.53193">
        <ele>129.5</ele>
        <time>2018-07-10T07:03:51Z</time>
      </trkpt>
      <trkpt lat="48.84448" lon="-0.53294">
        <ele>128.7</ele>
        <time>2018-07-10T07:03:51Z</time>
      </trkpt>
      <trkpt lat="48.84541" lon="-0.53348">
        <ele>121.8</ele>
        <time>2018-07-10T07:03:51Z</time>
      </trkpt>
      <trkpt lat="48.84685" lon="-0.53396">
        <ele>110.9</ele>
        <time>2018-07-10T07:03:51Z</time>
      </trkpt>
      <trkpt lat="48.84761" lon="-0.53492">
        <ele>103.3</ele>
        <time>2018-07-10T07:03:51Z</time>
      </trkpt>
      <trkpt lat="48.8477" lon="-0.53623">
        <ele>103.3</ele>
        <time>2018-07-10T07:03:51Z</time>
      </trkpt>
      <trkpt lat="48.84732" lon="-0.54135">
        <ele>80.1</ele>
        <time>2018-07-10T07:03:51Z</time>
      </trkpt>
      <trkpt lat="48.84695" lon="-0.54265">
        <ele>84</ele>
        <time>2018-07-10T07:03:51Z</time>
      </trkpt>
      <trkpt lat="48.84689" lon="-0.54315">
        <ele>85.2</ele>
        <time>2018-07-10T07:03:51Z</time>
      </trkpt>
      <trkpt lat="48.84748" lon="-0.5465">
        <ele>82.2</ele>
        <time>2018-07-10T07:03:51Z</time>
      </trkpt>
      <trkpt lat="48.84763" lon="-0.54775">
        <ele>80.5</ele>
        <time>2018-07-10T07:03:51Z</time>
      </trkpt>
      <trkpt lat="48.84775" lon="-0.54864">
        <ele>81.2</ele>
        <time>2018-07-10T07:03:51Z</time>
      </trkpt>
      <trkpt lat="48.84791" lon="-0.54878">
        <ele>79.5</ele>
        <time>2018-07-10T07:03:51Z</time>
      </trkpt>
      <trkpt lat="48.84803" lon="-0.54891">
        <ele>77.5</ele>
        <time>2018-07-10T07:03:51Z</time>
      </trkpt>
      <trkpt lat="48.84843" lon="-0.54957">
        <ele>78.8</ele>
        <time>2018-07-10T07:03:51Z</time>
      </trkpt>
      <trkpt lat="48.84875" lon="-0.55016">
        <ele>79</ele>
        <time>2018-07-10T07:03:51Z</time>
      </trkpt>
      <trkpt lat="48.84875" lon="-0.5507">
        <ele>79.8</ele>
        <time>2018-07-10T07:03:51Z</time>
      </trkpt>
    </trkseg>
  </trk>
</gpx>